{"data":{"norad_id":68384,"intl_designator":"2026-063E","name":"STARLINK-37137","alt_names":[],"object_type":"PAYLOAD","status":"ACTIVE","operator":null,"country":"US","launch_date":"2026-03-26","launch_site_code":"AFWTR","launch_vehicle":null,"mission":null,"orbit_class":"UNKNOWN","rcs_meters":null,"size_class":null,"mass_kg":null,"dimensions":null,"purposes":["comms"],"wikipedia_slug":null,"has_3d_model":false,"image_url":null,"decayed_at":null,"tle_current":{"epoch":"2026-05-25T03:17:38.862240Z","epoch_age_seconds":59249,"freshness":"FRESH","line1":"1 68384U 26063E   26145.13725535  .00034449  00000+0  10646-2 0  9997","line2":"2 68384  97.2873 287.7430 0001199  67.0452 293.0917 15.33443502  9619","mean_motion":15.33443502,"eccentricity":0.0001199,"inclination_deg":97.2873,"raan_deg":287.743,"arg_perigee_deg":67.0452,"mean_anomaly_deg":293.0917,"bstar":0.0010646,"rev_number":961,"period_min":93.906296392523,"perigee_km":464.72707368851,"apogee_km":466.36818926314,"semimajor_km":6843.6846314758,"source":"CELESTRAK","updated_at":"2026-05-25T13:38:21.928922Z"}}}